Regional Weather Roundup
Issued by NWS

Home | Current Version | Previous Version | Graphics & Text | Print | Product List | Glossary On
Versions: 1 2 3 4 5 6 7 8 9 10 11 12 13 14 15 16 17 18 19 20 21 22 23 24 25 26 27
000
ASUS45 KBOI 230810
RWRID

IDAHO REGIONAL WEATHER ROUNDUP
NATIONAL WEATHER SERVICE BOISE ID
200 AM MDT SAT JUL 23 2016

NOTE: "FAIR" INDICATES FEW OR NO CLOUDS BELOW 12000 FEET
WITH NO SIGNIFICANT WEATHER AND/OR OBSTRUCTIONS TO VISIBILITY

IDZ012-014-230900-
SOUTHWEST IDAHO


CITY           SKY/WX    TMP DP  RH WIND       PRES   REMARKS
BOISE          CLEAR     68  42  38 W9        30.11R
CALDWELL       NOT AVBL
MOUNTAIN HOME  CLEAR     68  43  40 W20       30.09R
$$

IDZ016-017-230900-
SOUTHCENTRAL IDAHO


CITY           SKY/WX    TMP DP  RH WIND       PRES   REMARKS
BURLEY         CLEAR     56  43  61 CALM      30.12S
JEROME         CLEAR     64  38  38 SW5       30.14R
TWIN FALLS     CLEAR     66  31  27 SW15      30.14R
$$

IDZ019>023-230900-
SOUTHEAST IDAHO


CITY           SKY/WX    TMP DP  RH WIND       PRES   REMARKS
IDAHO FALLS    CLEAR     63  34  33 SW14      30.12R
POCATELLO      CLEAR     70  31  23 SW16      30.13S
REXBURG        CLEAR     57  35  43 S6        30.12R
$$

IDZ006-010-011-018-031-032-230900-
CENTRAL IDAHO MOUNTAINS


CITY           SKY/WX    TMP DP  RH WIND       PRES   REMARKS
MCCALL         CLEAR     58  42  55 NE7       30.23F
HAILEY         CLEAR     54  32  43 NW10      30.20S
STANLEY          N/A     45  33  63 S6        30.29S
SALMON         CLEAR     64  43  45 NE6       30.15R
CHALLIS        CLEAR     59  35  40 E3        30.17S
$$

IDZ002-004-006-007-026-230900-
NORTHERN IDAHO


CITY           SKY/WX    TMP DP  RH WIND       PRES   REMARKS
LEWISTON       CLEAR     67  46  47 NW3       30.14R
LOWELL           N/A     58  52  80 CALM      30.17S
COEUR D`ALENE  CLEAR     55  52  88 SE3       30.14R
MULLAN PASS    CLEAR     45  43  93 VRB7      30.25R
$$




USA.gov is the U.S. government's official web portal to all federal, state and local government web resources and services.